Lid_Strength_Index
3 3 3 2 2 2 2 2 2 2 2 1 1 0 0 0 0 0 3 1 -0 -2 1 4 3 4 4 5 5 6 9 10 9 7 6 4 5 4 3 6 5 5 3 2 1
3 3 3 3 3 3 3 2 2 2 2 1 1 0 0 0 2 3 -1 -4 -4 -3 5 5 6 4 6 6 5 6 9 9 6 5 5 5 5 5 6 6 6 6 2 2 1
3 3 3 3 3 3 3 3 2 2 2 1 1 1 0 0 3 3 -2 -4 -3 -2 3 4 5 4 6 5 6 6 8 6 4 5 4 5 5 5 5 6 5 4 4 2 2
3 2 3 3 3 3 3 3 3 2 2 1 1 1 0 1 7 1 -3 -3 -4 2 3 5 6 6 7 7 5 7 6 6 5 5 5 5 4 4 4 4 3 2 2 2 2
2 3 2 2 2 2 3 3 3 2 2 2 1 1 1 4 4 -0 -3 -2 2 2 3 5 6 7 8 7 6 7 7 6 5 6 5 4 5 5 4 4 3 2 2 2 2
2 2 2 2 2 2 2 2 2 3 2 2 1 1 3 6 1 1 2 2 2 2 3 3 5 6 7 7 7 6 6 6 6 6 6 6 5 5 4 4 4 2 3 2 2
3 2 2 2 2 2 2 2 2 2 2 2 1 1 3 4 2 1 2 2 2 2 4 3 3 5 6 7 6 5 8 7 7 7 7 5 7 7 4 4 3 3 3 2 2
3 3 2 2 2 2 1 1 1 1 1 1 1 1 4 2 1 2 2 2 2 2 2 3 3 4 5 6 8 8 7 9 7 6 6 6 8 5 4 5 4 3 3 3 2
3 3 3 2 2 2 2 2 1 0 0 -0 1 3 5 3 4 2 2 4 3 3 3 3 3 5 5 7 8 7 9 8 7 5 6 7 7 5 3 4 4 4 3 3 3
4 4 3 3 2 2 2 2 0 0 0 0 1 3 3 5 4 2 2 3 4 4 4 5 5 6 6 7 11 9 8 7 8 6 6 6 7 5 4 4 4 3 3 3 3
4 4 3 3 2 2 1 0 2 3 2 3 3 3 4 3 3 3 2 3 3 5 7 5 7 8 7 7 7 7 7 8 7 5 6 6 6 5 4 4 4 4 4 3 3
4 3 3 3 3 2 1 2 2 2 5 2 2 3 2 2 4 4 2 5 5 7 6 6 8 6 5 6 7 7 8 8 6 5 6 7 7 5 5 4 4 4 4 4 3
4 3 3 3 3 2 1 3 1 1 5 4 3 3 3 2 4 4 3 4 6 7 6 7 6 6 6 7 8 8 8 8 8 6 6 7 8 6 5 4 4 4 3 3 3
3 3 3 3 3 1 1 1 0 -0 7 6 5 3 3 3 5 2 2 3 5 7 6 6 5 7 7 8 7 9 7 7 7 8 10 6 11 7 6 5 5 4 4 3 3
3 3 3 4 2 3 2 1 -0 1 12 6 5 1 3 4 4 4 1 3 6 6 6 7 7 7 8 7 6 8 6 7 7 8 8 8 10 8 6 7 6 4 4 3 3
4 3 3 2 1 2 1 1 1 9 12 7 5 6 5 4 5 4 4 3 3 6 5 6 4 6 6 5 6 6 7 7 7 8 11 9 9 9 8 6 5 4 4 3 3
4 4 4 3 4 2 1 2 8 11 6 8 7 6 6 6 6 5 6 6 7 9 9 7 7 5 5 7 6 6 8 12 12 12 13 8 10 8 6 6 5 5 4 3 3
5 5 2 3 2 2 2 5 12 8 8 6 6 6 8 6 6 6 7 8 6 6 8 10 11 7 5 6 7 7 8 11 16 14 12 8 11 9 5 4 4 4 3 3 3
5 2 2 2 2 2 4 9 9 8 7 7 7 8 8 6 7 7 7 7 6 6 9 10 10 6 5 5 6 8 9 7 10 9 11 10 8 6 6 5 5 4 4 4 3
4 3 3 2 1 2 6 9 7 6 6 7 9 7 9 8 8 8 8 6 7 6 6 8 11 7 6 5 5 7 6 10 9 15 15 11 10 10 7 6 5 5 4 4 3
3 5 3 2 1 4 7 7 7 7 7 8 8 8 8 8 8 8 8 7 6 7 6 7 8 9 7 8 8 8 9 8 8 10 13 14 11 6 6 5 5 5 4 4 3
4 6 3 2 5 5 7 9 9 8 7 8 8 8 8 8 8 8 8 7 6 5 8 6 9 12 9 6 5 6 8 8 13 12 10 11 11 5 5 5 5 4 4 3 3
6 6 3 3 9 9 8 8 8 9 9 9 9 8 7 9 10 8 7 6 7 6 8 7 10 14 11 8 7 8 7 7 8 9 11 13 11 5 5 5 4 4 4 3 3
6 8 7 5 7 9 10 10 10 8 9 9 9 8 8 9 8 9 8 6 7 7 8 7 9 11 14 10 8 10 9 8 9 12 12 11 9 7 6 5 5 4 3 3 3
6 8 8 10 9 9 9 10 11 11 8 7 9 8 8 11 9 9 8 7 7 7 8 8 11 9 9 8 8 9 9 9 11 10 11 9 9 7 6 5 5 5 4 4 3
8 9 8 9 9 9 10 10 10 9 9 9 9 8 8 9 9 11 9 8 9 8 9 8 12 10 11 9 9 10 9 9 8 9 9 8 9 5 5 4 5 4 4 4 4
5 6 8 9 10 10 9 9 9 8 7 6 6 7 8 7 6 5 6 6 7 9 9 10 11 12 15 10 10 13 10 9 8 8 8 10 7 5 5 5 5 4 4 4 3